�N����,����,����,����,����,�C��,���x,�~����,�S�V����,�ő�u�ԕ���,,,
,,,,,,,,,����,����,����,�N��
yyyy/mm/dd,hh:mm:ss,(16),16����,m/s,��,%,mm,KW/�u,(16),16����,m/s,Time
2014/1/1,1:00:00,9,��쐼,3.9,2.9,64.6,0,0,8,��,8.3,25
2014/1/1,2:00:00,9,��쐼,3.6,2.5,74.9,0,0,8,��,8.7,50
2014/1/1,3:00:00,8,��,1.8,1.6,93.6,0,0,8,��,6.5,1
2014/1/1,4:00:00,8,��,2.6,2.1,94.8,0,0,8,��,6.9,14
2014/1/1,5:00:00,13,���k��,2.5,0.6,98,0,0,8,��,5.3,1
2014/1/1,6:00:00,13,���k��,2.5,-1.3,98.3,0.5,0,7,��쓌,6.4,16
2014/1/1,7:00:00,13,���k��,2.7,-1.7,99.2,0,0,13,���k��,5.5,28
2014/1/1,8:00:00,11,���쐼,2.3,-3.8,96.9,0.5,0.06,13,���k��,6.1,0
2014/1/1,9:00:00,12,��,0.8,-2.3,96.6,0,0.2,11,���쐼,2.9,0
2014/1/1,10:00:00,10,�쐼,2.5,1.6,82.6,0.5,0.28,11,���쐼,5.6,59
2014/1/1,11:00:00,10,�쐼,2,0.5,99.1,1,0.06,10,�쐼,9.5,11
2014/1/1,12:00:00,9,��쐼,2.3,1.3,99.2,0.5,0.11,8,��,4.3,57
2014/1/1,13:00:00,10,�쐼,2.5,1.9,92.5,0,0.12,10,�쐼,9.1,28
2014/1/1,14:00:00,11,���쐼,6.6,2.9,63.9,0,0.21,11,���쐼,13,33
2014/1/1,15:00:00,11,���쐼,7.7,0.9,75.2,0.5,0.14,12,��,18.1,44
2014/1/1,16:00:00,11,���쐼,5.4,-0.5,82,0,0.02,11,���쐼,15.6,36
2014/1/1,17:00:00,11,���쐼,3.3,-1.1,74.4,0,0,11,���쐼,11,16
2014/1/1,18:00:00,9,��쐼,2.5,-1.7,80.8,0,0,11,���쐼,11.8,15
2014/1/1,19:00:00,10,�쐼,5.4,-1.4,75.7,0,0,10,�쐼,9.4,1
2014/1/1,20:00:00,10,�쐼,4,-1.2,74.4,0,0,10,�쐼,7.4,48
2014/1/1,21:00:00,11,���쐼,6.2,-0.8,59.6,0,0,10,�쐼,8.7,59
2014/1/1,22:00:00,11,���쐼,5.5,-1.5,63,0,0,10,�쐼,10.1,41
2014/1/1,23:00:00,11,���쐼,4.6,-3.1,88.6,0,0,11,���쐼,14.5,21
2014/1/1,0:00:00,11,���쐼,5.6,-2.6,88.3,0,0,10,�쐼,9.4,44
2014/1/2,1:00:00,10,�쐼,5.2,-2.8,95.4,0,0,10,�쐼,8.7,50
2014/1/2,2:00:00,11,���쐼,2.7,-3,96.7,0,0,11,���쐼,5.9,0
2014/1/2,3:00:00,10,�쐼,3.6,-3.1,97.2,0,0,10,�쐼,6,58
2014/1/2,4:00:00,10,�쐼,2.6,-4.8,96.9,0,0,10,�쐼,4.9,23
2014/1/2,5:00:00,11,���쐼,2.1,-9.3,97.1,0,0,10,�쐼,3.6,4
2014/1/2,6:00:00,12,��,2.1,-7.8,97.7,0,0,7,��쓌,3.2,51
2014/1/2,7:00:00,13,���k��,2.1,-8.7,92.6,0,0,14,�k��,3.5,37
2014/1/2,8:00:00,11,���쐼,3.2,-5.3,85.9,0,0.07,12,��,5.5,57
2014/1/2,9:00:00,12,��,3.3,-3.1,69.1,0,0.23,12,��,5.5,5
2014/1/2,10:00:00,11,���쐼,4.3,-1.7,51,0,0.36,11,���쐼,7.4,58
2014/1/2,11:00:00,11,���쐼,5.1,-1.2,45.5,0,0.44,11,���쐼,10.2,35
2014/1/2,12:00:00,11,���쐼,6.3,-1.3,47.7,0,0.47,11,���쐼,11.3,23
2014/1/2,13:00:00,11,���쐼,7.7,-0.9,39.4,0,0.46,11,���쐼,12.2,57
2014/1/2,14:00:00,11,���쐼,7.4,-0.5,34,0,0.37,7,��쓌,12.4,24
2014/1/2,15:00:00,14,�k��,3.7,-0.9,39.3,0,0.24,9,��쐼,9.8,2
2014/1/2,16:00:00,11,���쐼,5,-2.8,49.1,0,0.07,13,���k��,9.6,33
2014/1/2,17:00:00,10,�쐼,3.6,-3.5,52.6,0,0.01,12,��,7,0
2014/1/2,18:00:00,10,�쐼,3.3,-3.9,54.1,0,0,10,�쐼,6.3,48
2014/1/2,19:00:00,9,��쐼,4.3,-3.7,47.9,0,0,6,�쓌,8.8,46
2014/1/2,20:00:00,11,���쐼,2.8,-7.1,59.9,0,0,16,�k,5.1,42
2014/1/2,21:00:00,14,�k��,0.3,-9.7,69.1,0,0,1,�k�k��,25.6,59
2014/1/2,22:00:00,16,�k,1.3,-10.9,79.9,0,0,3,���k��,2.9,5
2014/1/2,23:00:00,10,�쐼,2.6,-10.6,80.2,0,0,9,��쐼,3.4,58
2014/1/2,0:00:00,16,�k,1,-11.6,80.7,0,0,8,��,3.5,2
2014/1/3,1:00:00,11,���쐼,1.6,-14.8,84.1,0,0,5,���쓌,3.2,14
2014/1/3,2:00:00,12,��,1.3,-13.3,82.2,0,0,12,��,3,3
2014/1/3,3:00:00,11,���쐼,2.3,-14.9,88.9,0,0,12,��,3.4,39
2014/1/3,4:00:00,15,�k�k��,1.6,-13,79.3,0,0,11,���쐼,3.3,9
2014/1/3,5:00:00,11,���쐼,0.8,-13.2,84,0,0,6,�쓌,5,43
2014/1/3,6:00:00,11,���쐼,1.6,-14.1,77.5,0,0,5,���쓌,5.7,5
2014/1/3,7:00:00,15,�k�k��,2.4,-13.1,80.8,0,0,4,��,16.6,9
2014/1/3,8:00:00,11,���쐼,2.1,-12.5,80.3,0,0.07,12,��,3.7,11
2014/1/3,9:00:00,13,���k��,1.6,-8.3,72.4,0,0.22,12,��,3.2,34
2014/1/3,10:00:00,14,�k��,0.3,-4.8,69.2,0,0.36,12,��,3.7,35
2014/1/3,11:00:00,13,���k��,0.5,-0.9,52.8,0,0.45,1,�k�k��,2.4,0
2014/1/3,12:00:00,2,�É�,0.2,2.4,38.7,0,0.49,5,���쓌,1.9,40
2014/1/3,13:00:00,6,�쓌,2.3,1,44.2,0,0.46,7,��쓌,4.6,48
2014/1/3,14:00:00,9,��쐼,2.4,1.3,48.4,0,0.33,5,���쓌,5.3,30
2014/1/3,15:00:00,8,��,1.2,0.5,61.5,0,0.17,9,��쐼,5,4
2014/1/3,16:00:00,9,��쐼,2.4,0.3,64.8,0,0.03,9,��쐼,3.8,57
2014/1/3,17:00:00,9,��쐼,3.8,0.7,74.3,0,0,8,��,6.4,44
2014/1/3,18:00:00,8,��,3.8,0.5,93.1,0,0,7,��쓌,7.3,45
2014/1/3,19:00:00,9,��쐼,4,1,95.5,0,0,8,��,9.7,12
2014/1/3,20:00:00,10,�쐼,2.9,0.7,98.7,0,0,8,��,5.3,6
2014/1/3,21:00:00,11,���쐼,3.1,-0.3,98.2,0,0,10,�쐼,5.9,35
2014/1/3,22:00:00,14,�k��,1.4,-0.8,98.7,0,0,10,�쐼,3.8,2
2014/1/3,23:00:00,14,�k��,1.9,-2.6,92.3,0,0,14,�k��,6.1,13
2014/1/3,0:00:00,12,��,2.5,-3.1,92.1,0,0,14,�k��,4.9,28
2014/1/4,1:00:00,7,��쓌,0.3,-4,95.9,0,0,10,�쐼,8.4,46
2014/1/4,2:00:00,12,��,1.2,-5.3,97,0,0,15,�k�k��,7.5,19
2014/1/4,3:00:00,12,��,0.9,-6.7,97.6,0,0,14,�k��,3.2,20
2014/1/4,4:00:00,11,���쐼,0.9,-8.7,95.7,0,0,12,��,2.9,30
2014/1/4,5:00:00,13,���k��,2.5,-6.5,91.3,0,0,10,�쐼,4.5,41
2014/1/4,6:00:00,12,��,2,-10.9,95.4,0,0,9,��쐼,3.6,21
2014/1/4,7:00:00,12,��,2.3,-12.8,94,0,0.01,10,�쐼,3,54
2014/1/4,8:00:00,11,���쐼,2.5,-11.2,94.2,0,0.07,10,�쐼,3.8,58
2014/1/4,9:00:00,12,��,2.8,-7.4,86.6,0,0.23,13,���k��,4.5,35
2014/1/4,10:00:00,12,��,2.4,-3.2,69.7,0,0.38,2,�k��,3.2,24
2014/1/4,11:00:00,3,���k��,2.6,-0.4,59.5,0,0.47,16,�k,5.7,35
2014/1/4,12:00:00,16,�k,1.9,-0.4,53.6,0,0.5,3,���k��,6.4,31
2014/1/4,13:00:00,13,���k��,3.3,-1.1,47.4,0,0.47,13,���k��,6.1,51
2014/1/4,14:00:00,15,�k�k��,1.7,-0.5,41.6,0,0.39,1,�k�k��,5,3
2014/1/4,15:00:00,13,���k��,2,-1.3,44.7,0,0.25,16,�k,3.6,21
2014/1/4,16:00:00,11,���쐼,2.2,-4,62.2,0,0.08,11,���쐼,3,59
2014/1/4,17:00:00,12,��,0.6,-5.7,69.6,0,0.01,11,���쐼,3,0
2014/1/4,18:00:00,12,��,1.7,-10,80.9,0,0,13,���k��,2.6,0
2014/1/4,19:00:00,12,��,2.9,-10.3,82.9,0,0,13,���k��,3.8,51
2014/1/4,20:00:00,13,���k��,1.6,-10.4,86.4,0,0,2,�k��,4.1,40
2014/1/4,21:00:00,12,��,1.9,-11.8,91.7,0,0,11,���쐼,2.9,39
2014/1/4,22:00:00,13,���k��,2.3,-11,92.8,0,0,12,��,3.4,11
2014/1/4,23:00:00,13,���k��,3,-10.4,86.6,0,0,13,���k��,4.7,46
2014/1/4,0:00:00,11,���쐼,3,-10.2,88.7,0,0,3,���k��,6.6,41
2014/1/5,1:00:00,13,���k��,2.8,-9.9,90.7,0,0,1,�k�k��,5,4
2014/1/5,2:00:00,12,��,0.5,-11.7,94.3,0,0,14,�k��,4.8,13
2014/1/5,3:00:00,11,���쐼,1.2,-12.9,94.6,0,0,10,�쐼,1.9,52
2014/1/5,4:00:00,13,���k��,2.9,-10.3,95.2,0,0,1,�k�k��,4.6,58
2014/1/5,5:00:00,14,�k��,3.3,-9,86.8,0,0,5,���쓌,5.8,22
2014/1/5,6:00:00,14,�k��,2.6,-8.6,71.7,0,0,15,�k�k��,6.1,36
2014/1/5,7:00:00,1,�k�k��,3,-10.9,81,0,0.01,1,�k�k��,4.4,44
2014/1/5,8:00:00,12,��,2.3,-10.7,74.5,0,0.09,1,�k�k��,4.9,23
2014/1/5,9:00:00,2,�k��,2.9,-7.4,67.4,0,0.24,10,�쐼,4.9,30
2014/1/5,10:00:00,13,���k��,3.6,-4.6,50.4,0,0.39,14,�k��,5.6,49
2014/1/5,11:00:00,14,�k��,2.3,-3,44.3,0,0.48,14,�k��,6.3,4
2014/1/5,12:00:00,14,�k��,2.7,-1.7,33.9,0,0.51,16,�k,4.5,49
2014/1/5,13:00:00,15,�k�k��,1.7,-0.9,32.7,0,0.49,13,���k��,4.7,5
2014/1/5,14:00:00,12,��,0.9,-0.6,30.6,0,0.4,15,�k�k��,2.8,4
2014/1/5,15:00:00,9,��쐼,1,-0.6,30.7,0,0.26,8,��,2.6,59
2014/1/5,16:00:00,4,��,0.5,-1.7,42.7,0,0.11,7,��쓌,3.1,3
2014/1/5,17:00:00,2,�k��,2,-3.5,54.8,0,0.01,2,�k��,2.5,57
2014/1/5,18:00:00,2,�k��,1.7,-7.5,63.8,0,0,1,�k�k��,3,16
2014/1/5,19:00:00,11,���쐼,1.7,-7.8,74.2,0,0,13,���k��,2.3,56
2014/1/5,20:00:00,12,��,2.1,-10.2,75.6,0,0,10,�쐼,2.7,53
2014/1/5,21:00:00,13,���k��,1.1,-10.2,79.6,0,0,9,��쐼,2.8,25
2014/1/5,22:00:00,13,���k��,2,-9.2,79.4,0,0,13,���k��,3.1,56
2014/1/5,23:00:00,12,��,2.4,-12.7,86.8,0,0,7,��쓌,3.8,17
2014/1/5,0:00:00,12,��,2.5,-11.9,88.7,0,0,1,�k�k��,3.6,32
2014/1/6,1:00:00,12,��,2.4,-12.2,84.2,0,0,10,�쐼,4,37
2014/1/6,2:00:00,13,���k��,2.9,-12.2,89.9,0,0,9,��쐼,4.3,51
2014/1/6,3:00:00,2,�k��,2.5,-13.4,91.6,0,0,8,��,3.7,31
2014/1/6,4:00:00,11,���쐼,2.4,-12.5,88.6,0,0,13,���k��,3.9,34
2014/1/6,5:00:00,6,�쓌,2.5,-12.8,91.3,0,0,13,���k��,4.6,54
2014/1/6,6:00:00,12,��,1.6,-11.4,86,0,0.01,3,���k��,4.7,24
2014/1/6,7:00:00,11,���쐼,2,-11.3,87.3,0,0.01,2,�k��,3.8,38
2014/1/6,8:00:00,2,�k��,2.8,-9.9,83,0,0.03,12,��,5.7,30
2014/1/6,9:00:00,11,���쐼,0.4,-8.8,81.1,0,0.09,3,���k��,4.8,2
2014/1/6,10:00:00,12,��,1.1,-5.6,72.3,0,0.31,12,��,2.4,39
2014/1/6,11:00:00,4,��,1.9,-1,61,0,0.48,2,�k��,3.2,56
2014/1/6,12:00:00,4,�É�,0.1,0.6,48.3,0,0.52,3,���k��,2.8,18
2014/1/6,13:00:00,10,�É�,0.2,-0.2,44.6,0,0.49,6,�쓌,2.3,35
2014/1/6,14:00:00,12,��,3.5,-0.3,40.1,0,0.42,13,���k��,6.2,54
2014/1/6,15:00:00,13,���k��,1.7,-1.7,50.5,0,0.15,15,�k�k��,5.9,19
2014/1/6,16:00:00,11,���쐼,2.5,-4.6,63.9,0,0.08,13,���k��,3.8,29
2014/1/6,17:00:00,15,�k�k��,1.8,-4.6,55.8,0,0.01,15,�k�k��,3.2,57
2014/1/6,18:00:00,13,���k��,2.1,-5.1,56.8,0,0,7,��쓌,3.9,40
2014/1/6,19:00:00,14,�k��,1.4,-5.8,68,0,0,13,���k��,4.6,6
2014/1/6,20:00:00,14,�k��,2.2,-5.7,70.4,0,0,1,�k�k��,5.1,16
2014/1/6,21:00:00,12,��,2,-8.1,76.9,0,0,15,�k�k��,5.1,8
2014/1/6,22:00:00,8,��,3,-6.9,73.4,0,0,13,���k��,5.2,53
2014/1/6,23:00:00,10,�쐼,3.1,-10.3,78.1,0,0,1,�k�k��,5.2,27
2014/1/6,0:00:00,5,���쓌,3.5,-9.7,79.5,0,0,16,�k,4.4,59
2014/1/7,1:00:00,3,���k��,3.8,-10.9,80.2,0,0,16,�k,5.5,39
2014/1/7,2:00:00,3,���k��,3.1,-13.2,84.9,0,0,6,�쓌,5.3,2
2014/1/7,3:00:00,2,�k��,2.8,-12.7,85.7,0,0,9,��쐼,4.4,44
2014/1/7,4:00:00,1,�k�k��,3.3,-13.1,81.6,0,0,1,�k�k��,4.6,31
2014/1/7,5:00:00,2,�k��,2.8,-13.4,82.4,0,0,16,�k,4.7,7
2014/1/7,6:00:00,2,�k��,2.8,-14.7,86.5,0,0,2,�k��,4.5,10
2014/1/7,7:00:00,15,�k�k��,1.8,-14.9,85,0,0.01,4,��,4.3,31
2014/1/7,8:00:00,13,���k��,1.6,-12.4,75.3,0,0.08,3,���k��,5.1,33
2014/1/7,9:00:00,12,��,2.8,-8.8,68.9,0,0.24,12,��,3.5,45
2014/1/7,10:00:00,11,���쐼,1.6,-6.3,68.8,0,0.32,11,���쐼,3,35
2014/1/7,11:00:00,12,��,1.3,-2.8,58.9,0,0.35,12,��,2,58
2014/1/7,12:00:00,7,��쓌,2.2,-0.5,57.9,0,0.47,7,��쓌,3.6,25
2014/1/7,13:00:00,7,��쓌,2.2,0.7,50.7,0,0.48,6,�쓌,3.7,35
2014/1/7,14:00:00,5,���쓌,1.3,2.1,55.2,0,0.38,7,��쓌,2.7,7
2014/1/7,15:00:00,3,���k��,1,0.9,59.7,0,0.24,6,�쓌,2.5,14
2014/1/7,16:00:00,2,�k��,1.5,-1.5,63.7,0,0.04,3,���k��,2.4,18
2014/1/7,17:00:00,2,�É�,0.2,-4.8,78.8,0,0,1,�k�k��,4.1,59
2014/1/7,18:00:00,11,���쐼,1.5,-6.1,86.1,0,0,15,�k�k��,2.1,16
2014/1/7,19:00:00,12,��,1.5,-7,86.5,0,0,12,��,2.4,50
2014/1/7,20:00:00,10,�쐼,1.6,-8.3,88.7,0,0,10,�쐼,2.8,49
2014/1/7,21:00:00,11,���쐼,1.5,-8.6,90.5,0,0,9,��쐼,4,16
2014/1/7,22:00:00,9,��쐼,1.3,-7.1,83.7,0,0,9,��쐼,5.3,15
2014/1/7,23:00:00,10,�쐼,1.5,-9.6,92.8,0,0,10,�쐼,3.6,21
2014/1/7,0:00:00,9,��쐼,4.4,1.6,71.8,0,0,8,��,8.4,50
2014/1/8,1:00:00,9,��쐼,4.7,1.8,76.7,0,0,9,��쐼,9.5,21
2014/1/8,2:00:00,9,��쐼,4.8,1.6,81.8,0,0,9,��쐼,10.6,9
2014/1/8,3:00:00,8,��,2.3,2.1,81.6,0,0,9,��쐼,9.9,1
2014/1/8,4:00:00,8,��,2.7,2.4,89.6,0,0,8,��,5.6,42
2014/1/8,5:00:00,9,��쐼,2.1,2.4,89,0,0,9,��쐼,4.4,3
2014/1/8,6:00:00,12,��,1.9,-3,97.4,0,0,12,��,3.2,57
2014/1/8,7:00:00,11,���쐼,2.5,-4.6,98.2,0,0.01,9,��쐼,3.8,3
2014/1/8,8:00:00,12,��,1.1,-4.8,98.7,0,0.04,11,���쐼,3.2,1
2014/1/8,9:00:00,12,��,1.4,-3.5,89.9,0,0.16,12,��,2.7,50
2014/1/8,10:00:00,13,�É�,0.2,-1.4,85.8,0,0.26,9,��쐼,2.8,20
2014/1/8,11:00:00,11,���쐼,1,2,73.4,0,0.4,12,��,2.4,40
2014/1/8,12:00:00,2,�k��,2.3,5,63.7,0,0.46,3,���k��,4,56
2014/1/8,13:00:00,4,��,3.1,5.5,67.2,0,0.43,2,�k��,4.1,11
2014/1/8,14:00:00,5,���쓌,2.5,4,72.8,0,0.31,4,��,5.6,23
2014/1/8,15:00:00,3,���k��,0.6,3.5,71.1,0,0.16,5,���쓌,3.4,2
2014/1/8,16:00:00,13,���k��,1.3,1.8,65.5,0,0.05,15,�k�k��,2.5,27
2014/1/8,17:00:00,12,��,1.3,-3.2,84,0,0.01,12,��,2.6,14
2014/1/8,18:00:00,11,���쐼,0.9,-4.7,88.5,0,0,12,��,2.9,1
2014/1/8,19:00:00,12,��,1.4,-5.6,90.7,0,0,12,��,2.7,42
2014/1/8,20:00:00,12,��,1.3,-6,88.2,0,0,12,��,3.8,20
2014/1/8,21:00:00,13,���k��,1.3,-5.6,91,0,0,12,��,2.9,28
2014/1/8,22:00:00,13,���k��,0.8,-6.1,93,0,0,14,�k��,3.2,25
2014/1/8,23:00:00,10,�쐼,1.6,-7.3,94.3,0,0,10,�쐼,2.7,54
2014/1/8,0:00:00,12,��,2.2,-7.9,94.1,0,0,12,��,4,41
2014/1/9,1:00:00,11,���쐼,0.6,-8.8,94.4,0,0,4,��,2.5,7
2014/1/9,2:00:00,10,�쐼,1.3,-7.7,94.7,0,0,13,���k��,2.7,6
2014/1/9,3:00:00,12,��,1.7,-8.6,88.9,0,0,10,�쐼,2.5,22
2014/1/9,4:00:00,9,�É�,0.2,-8.9,89.6,0,0,10,�쐼,2.2,32
2014/1/9,5:00:00,12,��,1.6,-7.9,87.6,0,0,12,��,2.2,55
2014/1/9,6:00:00,12,��,1.6,-5.6,78.6,0,0,10,�쐼,3,37
2014/1/9,7:00:00,12,��,2.9,-5.2,75.9,0,0,12,��,3.6,57
2014/1/9,8:00:00,4,��,0.7,-5.2,81,0,0.04,12,��,3.2,17
2014/1/9,9:00:00,13,���k��,3.7,-4,61,0,0.11,4,��,6.6,57
2014/1/9,10:00:00,13,���k��,3.8,-3.7,58.3,0,0.21,16,�k,8,41
2014/1/9,11:00:00,14,�k��,3.1,-2.9,51.1,0,0.36,16,�k,7.2,7
2014/1/9,12:00:00,14,�k��,3.5,-1.4,38.7,0,0.51,13,���k��,6.3,49
2014/1/9,13:00:00,14,�k��,3.4,-1.1,35.8,0,0.48,14,�k��,7.1,10
2014/1/9,14:00:00,14,�k��,3.2,-1.6,38.9,0,0.38,2,�k��,6.6,29
2014/1/9,15:00:00,14,�k��,2,-2.4,45,0,0.12,16,�k,6.6,0
2014/1/9,16:00:00,14,�k��,1.8,-3,44.5,0,0.04,16,�k,5.7,21
2014/1/9,17:00:00,13,���k��,1.8,-5,56.4,0,0.01,3,���k��,3.4,40
2014/1/9,18:00:00,14,�k��,2.5,-5.3,66.3,0,0,3,���k��,4.1,48
2014/1/9,19:00:00,13,���k��,1.1,-7.3,72.8,0,0,2,�k��,4.1,35
2014/1/9,20:00:00,12,��,1.7,-8.7,71.5,0,0,12,��,2.5,57
2014/1/9,21:00:00,12,��,1.8,-10.1,78.1,0,0,13,���k��,2.7,4
2014/1/9,22:00:00,11,���쐼,1.4,-11.3,81.5,0,0,11,���쐼,3.4,10
2014/1/9,23:00:00,11,���쐼,2.3,-11.7,64.1,0,0,11,���쐼,4.3,17
2014/1/9,0:00:00,12,��,3,-12,63.9,0,0,11,���쐼,4.1,38
2014/1/10,1:00:00,12,��,2.7,-14.2,74.1,0,0,13,���k��,4.4,13
2014/1/10,2:00:00,13,���k��,2.9,-12.5,61.3,0,0,14,�k��,4.3,11
2014/1/10,3:00:00,11,���쐼,2.5,-14.5,70.3,0,0,9,��쐼,3.6,58
2014/1/10,4:00:00,11,���쐼,1.7,-16.2,75.8,0,0,12,��,3.3,29
2014/1/10,5:00:00,13,���k��,2.1,-16.5,77.2,0,0,12,��,3.9,53
2014/1/10,6:00:00,11,���쐼,1.8,-16.6,78.8,0,0,11,���쐼,4.4,28
2014/1/10,7:00:00,12,��,2.8,-17.3,81,0,0.01,10,�쐼,6.2,26
2014/1/10,8:00:00,15,�k�k��,2.6,-15.6,77.4,0,0.08,12,��,4.2,51
2014/1/10,9:00:00,12,��,1.1,-11.1,69.7,0,0.25,12,��,4.8,16
2014/1/10,10:00:00,9,�É�,0.2,-5.3,37.6,0,0.4,11,���쐼,24.7,34
2014/1/10,11:00:00,10,�쐼,3.3,-4.6,31.5,0,0.5,10,�쐼,5.4,52
2014/1/10,12:00:00,15,�k�k��,0.9,-4.3,29.2,0,0.55,9,��쐼,5.9,24
2014/1/10,13:00:00,14,�k��,2.7,-4.6,28.8,0,0.48,16,�k,6,36
2014/1/10,14:00:00,11,���쐼,4,-4.6,30.5,0,0.29,9,��쐼,6.7,57
2014/1/10,15:00:00,10,�쐼,4,-5.2,33,0,0.25,11,���쐼,8.6,23
2014/1/10,16:00:00,12,��,2.5,-8.1,44.4,0,0.08,12,��,6.1,33
2014/1/10,17:00:00,11,���쐼,1.8,-9.3,49.3,0,0.01,8,��,3.3,1
2014/1/10,18:00:00,13,���k��,1.5,-12,64.4,0,0,10,�쐼,4.1,29
2014/1/10,19:00:00,13,���k��,1.3,-14.5,76.6,0,0,12,��,2.5,59
2014/1/10,20:00:00,11,���쐼,2.3,-14.7,76.1,0,0,12,��,2.9,53
2014/1/10,21:00:00,11,���쐼,2.1,-15.2,81.1,0,0,10,�쐼,3.1,59
2014/1/10,22:00:00,11,���쐼,2.6,-16.4,82.1,0,0,12,��,3.6,17
2014/1/10,23:00:00,11,���쐼,3,-16.7,82.8,0,0,10,�쐼,3.7,41
2014/1/10,0:00:00,10,�쐼,2.5,-16.7,82.9,0,0,10,�쐼,5.1,36
2014/1/11,1:00:00,11,���쐼,3,-17.9,81.6,0,0,12,��,3.9,52
2014/1/11,2:00:00,10,�쐼,2.4,-18.1,84.1,0,0,11,���쐼,3.7,50
2014/1/11,3:00:00,9,��쐼,2.8,-18,83.3,0,0,12,��,4.6,25
2014/1/11,4:00:00,10,�쐼,3,-18.2,84.4,0,0,11,���쐼,4.4,47
2014/1/11,5:00:00,2,�k��,2.5,-18,83.7,0,0,11,���쐼,4.6,41
2014/1/11,6:00:00,10,�쐼,3.2,-17.7,82.9,0,0,5,���쓌,4.8,7
2014/1/11,7:00:00,2,�k��,2.7,-17.8,84.1,0,0,3,���k��,4.6,41
2014/1/11,8:00:00,12,��,2.7,-15.8,78.4,0,0.08,11,���쐼,4.5,33
2014/1/11,9:00:00,12,��,1.8,-11.4,70.7,0,0.24,11,���쐼,3.7,2
2014/1/11,10:00:00,10,�쐼,2.1,-4.9,45.2,0,0.39,11,���쐼,3.3,59
2014/1/11,11:00:00,11,���쐼,3.5,-3.8,33,0,0.49,11,���쐼,7.3,56
2014/1/11,12:00:00,14,�k��,4.7,-3.5,34.5,0,0.54,12,��,12.3,46
2014/1/11,13:00:00,15,�k�k��,5.1,-3.2,34.5,0,0.52,5,���쓌,9.4,5
2014/1/11,14:00:00,11,���쐼,3.9,-3.1,33.9,0,0.47,1,�k�k��,8.6,5
2014/1/11,15:00:00,11,���쐼,4,-3.9,45.2,0,0.27,10,�쐼,6.5,5
2014/1/11,16:00:00,11,���쐼,3.3,-5.4,47.9,0,0.07,11,���쐼,6.8,26
2014/1/11,17:00:00,11,���쐼,2.2,-7.5,50.9,0,0.01,11,���쐼,4.4,5
2014/1/11,18:00:00,11,���쐼,2.4,-9.1,56.2,0,0,9,��쐼,4.8,10
2014/1/11,19:00:00,16,�k,1.6,-9.4,58.9,0,0,11,���쐼,4.4,31
2014/1/11,20:00:00,11,���쐼,2.9,-11,62.9,0,0,11,���쐼,4.4,39
2014/1/11,21:00:00,12,��,1.1,-13.7,75,0,0,12,��,3.3,14
2014/1/11,22:00:00,13,���k��,1,-15.5,79.7,0,0,13,���k��,2.4,39
2014/1/11,23:00:00,11,���쐼,3.7,-7.6,49.5,0,0,11,���쐼,6.3,40
2014/1/11,0:00:00,11,���쐼,2.1,-9.9,58.8,0,0,11,���쐼,4.1,3
2014/1/12,1:00:00,14,�k��,1.1,-15.2,76.2,0,0,3,���k��,3.3,7
2014/1/12,2:00:00,12,��,1.2,-15.2,81.5,0,0,11,���쐼,4.2,28
2014/1/12,3:00:00,11,���쐼,2.1,-14.4,77.5,0,0,11,���쐼,3.9,42
2014/1/12,4:00:00,11,���쐼,2.2,-16,82.5,0,0,12,��,2.6,53
2014/1/12,5:00:00,10,�쐼,2.6,-16.5,81.3,0,0,12,��,3.9,50
2014/1/12,6:00:00,11,���쐼,2.3,-16.1,86.1,0,0,11,���쐼,4.1,20
2014/1/12,7:00:00,10,�쐼,2.2,-15.7,85.5,0,0.01,11,���쐼,5.3,41
2014/1/12,8:00:00,11,���쐼,2,-14.5,84.1,0,0.05,12,��,4.6,2
2014/1/12,9:00:00,11,���쐼,1.6,-11.2,79.4,0,0.12,10,�쐼,3.4,29
2014/1/12,10:00:00,2,�k��,1.1,-5.4,71.6,0,0.22,10,�쐼,2.9,18
2014/1/12,11:00:00,6,�쓌,1,-1.7,45.4,0,0.38,2,�k��,2.4,45
2014/1/12,12:00:00,10,�쐼,5.7,-1.5,53.6,0,0.35,10,�쐼,9.5,48
2014/1/12,13:00:00,8,��,4.3,-2.3,72.1,0,0.19,11,���쐼,7.9,0
2014/1/12,14:00:00,8,��,3.3,-2.7,83.4,0,0.12,8,��,8.5,3
2014/1/12,15:00:00,9,��쐼,2.8,-2.1,81,0,0.15,9,��쐼,6.3,4
2014/1/12,16:00:00,15,�k�k��,4.1,-4.5,87,0,0.06,14,�k��,9.7,39
2014/1/12,17:00:00,14,�k��,3.2,-5.1,71.3,0,0.01,16,�k,9,19
2014/1/12,18:00:00,11,���쐼,3.2,-6.6,74.5,0,0,1,�k�k��,5.2,36
2014/1/12,19:00:00,11,���쐼,1.7,-8.3,85.2,0,0,10,�쐼,5.1,1
2014/1/12,20:00:00,12,��,1.4,-11.4,92.5,0,0,11,���쐼,3.6,31
2014/1/12,21:00:00,14,�k��,1.3,-12.5,91.2,0,0,11,���쐼,3.8,11
2014/1/12,22:00:00,16,�k,0.5,-14,92.3,0,0,9,��쐼,7.4,20
2014/1/12,23:00:00,12,��,2,-13.4,93.6,0,0,12,��,3.3,59
2014/1/12,0:00:00,12,��,3,-11.3,89.9,0,0,12,��,4.7,55
2014/1/13,1:00:00,14,�k��,1.6,-10.4,78,0,0,6,�쓌,5.5,22
2014/1/13,2:00:00,14,�k��,2.8,-8.8,66,0,0,15,�k�k��,7.9,58
2014/1/13,3:00:00,14,�k��,3.8,-9.4,62.8,0,0,14,�k��,9.1,14
2014/1/13,4:00:00,13,���k��,3.5,-10.2,61.2,0,0,14,�k��,8.7,12
2014/1/13,5:00:00,15,�k�k��,2.5,-12.3,68.3,0,0,13,���k��,5.9,2
2014/1/13,6:00:00,11,���쐼,2.9,-14.7,75.6,0,0,10,�쐼,3.8,40
2014/1/13,7:00:00,11,���쐼,1.9,-15.1,77.1,0,0.01,16,�k,4,14
2014/1/13,8:00:00,11,���쐼,1.3,-14,72,0,0.08,1,�k�k��,3.7,38
2014/1/13,9:00:00,11,���쐼,2.2,-10.6,62.8,0,0.25,3,���k��,4.3,29
2014/1/13,10:00:00,12,��,1.2,-7.5,53.9,0,0.4,12,��,3.2,1
2014/1/13,11:00:00,10,�쐼,0.6,-5.9,34.7,0,0.5,10,�쐼,2.5,42
2014/1/13,12:00:00,15,�k�k��,2.7,-5.3,33,0,0.54,14,�k��,4.5,59
2014/1/13,13:00:00,12,��,4,-5.3,34.5,0,0.52,3,���k��,7.5,59
2014/1/13,14:00:00,14,�k��,3.6,-4.7,33.1,0,0.43,10,�쐼,7.4,0
2014/1/13,15:00:00,12,��,3.6,-5,33.5,0,0.29,4,��,7.3,17
2014/1/13,16:00:00,15,�k�k��,2.7,-6.6,44.3,0,0.12,12,��,6.8,13
2014/1/13,17:00:00,15,�k�k��,1.9,-8.3,51.8,0,0.01,16,�k,5.3,17
2014/1/13,18:00:00,9,��쐼,0.6,-10.2,58.6,0,0,8,��,3.5,16
2014/1/13,19:00:00,10,�쐼,1.4,-14.4,74.8,0,0,9,��쐼,2.7,5
2014/1/13,20:00:00,11,���쐼,1.9,-15.4,75.4,0,0,4,��,3.2,25
2014/1/13,21:00:00,12,��,1.4,-15.7,79.9,0,0,11,���쐼,2.8,55
2014/1/13,22:00:00,11,���쐼,1.6,-16.4,79.3,0,0,7,��쓌,25.6,0
2014/1/13,23:00:00,11,���쐼,1.8,-17.5,83.2,0,0,12,��,3.1,30
2014/1/13,0:00:00,11,���쐼,1.4,-18.2,86.2,0,0,11,���쐼,2.7,43
2014/1/14,1:00:00,11,���쐼,1.8,-18.7,86,0,0,11,���쐼,2.6,25
2014/1/14,2:00:00,11,���쐼,1.9,-19,84.2,0,0,10,�쐼,3,41
2014/1/14,3:00:00,2,�k��,1.5,-18,81.4,0,0,10,�쐼,3.2,17
2014/1/14,4:00:00,10,�쐼,1.9,-17.7,81.6,0,0,11,���쐼,3.6,50
2014/1/14,5:00:00,16,�k,1.5,-16.3,72.9,0,0,10,�쐼,5,15
2014/1/14,6:00:00,11,���쐼,2.2,-16.7,78.1,0,0,5,���쓌,3.4,44
2014/1/14,7:00:00,10,�쐼,4.2,-8.8,51.4,0,0,8,��,6.7,34
2014/1/14,8:00:00,4,��,1.7,-6.8,54.8,0,0.09,4,��,5.7,8
2014/1/14,9:00:00,12,��,1.4,-4.3,39.5,0,0.26,12,��,2.8,58
2014/1/14,10:00:00,9,��쐼,5.1,-2.2,31.4,0,0.41,11,���쐼,8.3,21
2014/1/14,11:00:00,10,�쐼,6.3,-1.5,35,0,0.51,4,��,9.4,52
2014/1/14,12:00:00,13,���k��,5.4,-1.1,33,0,0.55,7,��쓌,11,7
2014/1/14,13:00:00,14,�k��,4.4,-1.1,32.2,0,0.52,8,��,11.2,41
2014/1/14,14:00:00,15,�k�k��,5.5,-1.4,34.1,0,0.44,6,�쓌,10,45
2014/1/14,15:00:00,13,���k��,4.1,-2.1,36.1,0,0.24,14,�k��,9.5,1
2014/1/14,16:00:00,13,���k��,3.7,-2.9,39.5,0,0.11,6,�쓌,8.8,30
2014/1/14,17:00:00,7,��쓌,4.3,-5.4,55.2,0,0.01,12,��,6.1,58
2014/1/14,18:00:00,11,���쐼,4.5,-5.7,56.1,0,0,16,�k,6.2,6
2014/1/14,19:00:00,10,�쐼,5.1,-6.2,57.6,0,0,8,��,6.6,55
2014/1/14,20:00:00,10,�쐼,3.6,-6.9,58.5,0,0,8,��,7.3,14
2014/1/14,21:00:00,2,�k��,2.2,-7.5,58.1,0,0,12,��,6.2,4
2014/1/14,22:00:00,16,�k,2.4,-11,69.3,0,0,1,�k�k��,3.8,47
2014/1/14,23:00:00,2,�k��,2.3,-12,74.7,0,0,12,��,3.7,2
2014/1/14,0:00:00,16,�k,2.3,-10.4,79.3,0,0,16,�k,4.1,9
2014/1/15,1:00:00,1,�k�k��,2.8,-9.2,76.6,0,0,10,�쐼,3.8,54
2014/1/15,2:00:00,10,�쐼,2.5,-13.6,86.5,0,0,1,�k�k��,3.8,2
2014/1/15,3:00:00,10,�쐼,1.3,-14,88.6,0,0,10,�쐼,5.2,23
2014/1/15,4:00:00,2,�k��,2.6,-13.9,90.2,0,0,11,���쐼,3.9,59
2014/1/15,5:00:00,4,��,3.2,-15.1,90.4,0,0,12,��,4.5,42
2014/1/15,6:00:00,16,�k,1.5,-14.8,89.8,0,0,12,��,4,15
2014/1/15,7:00:00,2,�k��,2.1,-16,89.6,0,0.01,1,�k�k��,2.8,57
2014/1/15,8:00:00,3,���k��,1.7,-13.8,81.9,0,0.09,12,��,3.4,13
2014/1/15,9:00:00,11,���쐼,1.8,-8.6,69.3,0,0.26,11,���쐼,2.7,59
2014/1/15,10:00:00,13,���k��,1.4,-3.9,52.5,0,0.41,12,��,3.1,3
2014/1/15,11:00:00,13,���k��,1.2,-2.4,41.4,0,0.51,11,���쐼,3.1,35
2014/1/15,12:00:00,11,���쐼,0.9,-1.7,33.4,0,0.55,11,���쐼,2.2,42
2014/1/15,13:00:00,4,��,2.9,-1.1,46.7,0,0.53,4,��,4.7,46
2014/1/15,14:00:00,5,���쓌,3.4,-1.8,47.3,0,0.4,5,���쓌,5,57
2014/1/15,15:00:00,5,���쓌,2.3,-1.3,43.2,0,0.29,4,��,4.5,36
2014/1/15,16:00:00,4,��,1.3,-4.4,59.7,0,0.09,5,���쓌,3.5,17
2014/1/15,17:00:00,14,�k��,1,-6.9,67,0,0.01,10,�쐼,3.2,38
2014/1/15,18:00:00,12,��,1.7,-8.6,69.9,0,0,10,�쐼,3.6,14
2014/1/15,19:00:00,11,���쐼,1.9,-10.7,75.3,0,0,11,���쐼,2.8,56
2014/1/15,20:00:00,11,���쐼,2.6,-9.2,76.2,0,0,11,���쐼,4.3,53
2014/1/15,21:00:00,11,���쐼,2.9,-10.9,80.4,0,0,12,��,4.6,12
2014/1/15,22:00:00,10,�쐼,2,-12.3,84.6,0,0,3,���k��,4.6,5
2014/1/15,23:00:00,10,�쐼,2.4,-11.8,85,0,0,11,���쐼,3.9,31
2014/1/15,0:00:00,11,���쐼,3.7,-9.2,72.6,0,0,11,���쐼,5.1,52
2014/1/16,1:00:00,3,���k��,3.6,-11.3,78.2,0,0,5,���쓌,5.4,59
2014/1/16,2:00:00,10,�쐼,3.2,-11,73.4,0,0,9,��쐼,4.8,59
2014/1/16,3:00:00,11,���쐼,2.2,-13.3,81.7,0,0,11,���쐼,4.2,1
2014/1/16,4:00:00,11,���쐼,2.2,-14.9,84.6,0,0,12,��,3.1,23
2014/1/16,5:00:00,4,��,2,-15,85.5,0,0,12,��,3.2,19
2014/1/16,6:00:00,3,���k��,2.6,-15.8,85.3,0,0,2,�k��,4.4,48
2014/1/16,7:00:00,10,�쐼,2.7,-15.4,86.3,0,0,10,�쐼,3.3,56
2014/1/16,8:00:00,12,��,2,-13.7,82.4,0,0.09,11,���쐼,4,10
2014/1/16,9:00:00,8,��,2,-9.2,70.4,0,0.25,12,��,3.5,35
2014/1/16,10:00:00,12,��,1.9,-3,38.7,0,0.41,12,��,3.6,59
2014/1/16,11:00:00,9,��쐼,3.4,-1.8,31.5,0,0.51,10,�쐼,6.7,59
2014/1/16,12:00:00,14,�k��,3,-1.6,29.9,0,0.55,8,��,7,34
2014/1/16,13:00:00,14,�k��,3.8,-1.6,27.5,0,0.52,16,�k,7.4,53
2014/1/16,14:00:00,15,�k�k��,3.6,-1.6,30.8,0,0.44,10,�쐼,7.5,22
2014/1/16,15:00:00,15,�k�k��,3.7,-1.9,30.3,0,0.28,15,�k�k��,6.5,20
2014/1/16,16:00:00,15,�k�k��,2.5,-3,33.7,0,0.13,6,�쓌,5.8,0
2014/1/16,17:00:00,14,�k��,2.4,-4.8,45.5,0,0.01,15,�k�k��,4.2,31
2014/1/16,18:00:00,13,���k��,2.4,-5.9,50,0,0,13,���k��,4.1,41
2014/1/16,19:00:00,12,��,2.9,-6.9,53.7,0,0,13,���k��,6.2,46
2014/1/16,20:00:00,3,���k��,2.2,-8.4,62.4,0,0,9,��쐼,3.9,17
2014/1/16,21:00:00,13,���k��,3.1,-7.6,69.2,0,0,13,���k��,5.2,47
2014/1/16,22:00:00,13,���k��,3.3,-8.3,69.2,0,0,8,��,6.3,56
2014/1/16,23:00:00,3,���k��,3,-8.8,68.3,0,0,16,�k,5.4,52
2014/1/16,0:00:00,3,���k��,3.9,-9.3,69,0,0,9,��쐼,5.7,59
2014/1/17,1:00:00,8,��,1.2,-11.8,74.3,0,0,11,���쐼,6.2,12
2014/1/17,2:00:00,10,�쐼,1.6,-13.3,78.4,0,0,10,�쐼,4,46
2014/1/17,3:00:00,8,��,1.2,-12.6,83.1,0,0,9,��쐼,2.5,28
2014/1/17,4:00:00,10,�쐼,1.4,-16.5,87.9,0,0,11,���쐼,2.2,58
2014/1/17,5:00:00,10,�쐼,1.3,-17.5,90.2,0,0,1,�k�k��,17.3,40
2014/1/17,6:00:00,11,���쐼,1,-17.6,87.1,0,0,12,��,2.4,34
2014/1/17,7:00:00,11,���쐼,1.2,-18.5,88.6,0,0,11,���쐼,2.6,0
2014/1/17,8:00:00,12,��,1,-12.1,76.6,0,0.1,1,�k�k��,23.6,40
2014/1/17,9:00:00,11,���쐼,1.6,-8.7,61.7,0,0.27,10,�쐼,2.7,33
2014/1/17,10:00:00,8,��,1.9,-7,51.1,0,0.42,8,��,3.1,58
2014/1/17,11:00:00,8,��,1.3,-5.8,46.4,0,0.52,8,��,3.7,43
2014/1/17,12:00:00,11,���쐼,1,-4.8,46.5,0,0.56,10,�쐼,3.1,29
2014/1/17,13:00:00,10,�쐼,2.2,-3.9,47.9,0,0.53,11,���쐼,3.8,31
2014/1/17,14:00:00,9,��쐼,2.3,-3.7,47.3,0,0.45,10,�쐼,4.2,3
2014/1/17,15:00:00,10,�쐼,2.8,-3.9,47,0,0.3,9,��쐼,4.7,21
2014/1/17,16:00:00,11,���쐼,1.5,-5,49.8,0,0.13,11,���쐼,4.3,9
2014/1/17,17:00:00,11,���쐼,2.9,-7,58,0,0.01,11,���쐼,3.6,59
2014/1/17,18:00:00,11,���쐼,1.2,-10.7,69.5,0,0,11,���쐼,3.9,8
2014/1/17,19:00:00,10,�쐼,2.2,-11.3,74.1,0,0,2,�k��,3.2,43